Flag for Germany Weather past 2 weeks in Viernheim, Hesse, Germany

Now
50 °F

Scattered clouds.


Feels Like: 45 °F
Forecast: 36 / 49 °F
Wind: 14 mph from West

Location: Baden Wurttemberg - Neuostheim

Current Time: Mar 2, 2015 at 2:04:21 PM

Latest Report: Mar 2, 2015 at 1:20 PM


Visibility: N/A

Pressure: 29.77 "Hg

Humidity: 47%

Dew point: 30 °F

Location of ViernheimLocation

Historic Weather in Viernheim — Graph

°F

Viernheim temperature yesterday

Maximum temperature yesterday: 50 °F (at 2:50 PM)
Minimum temperature yesterday: 37 °F (at 7:20 AM)
Average temperature yesterday: 46 °F

Past Weeks' High & Low Weather Summary

 TemperatureHumidityPressure
High55 °F (Feb 20, 3:20 PM)100% (Feb 22, 7:50 AM)30.74 "Hg (Feb 22, 7:50 AM)
Low30 °F (Feb 15, 7:20 PM)40% (Feb 28, 5:20 PM)29.47 "Hg (Feb 23, 2:20 PM)
Average40 °F76%30.03 "Hg
* Reported Feb 15 12:20 PM — Mar 2 12:50 PM, Viernheim, Weather by CustomWeather, © 2015

Note: Actual official high and low records may vary slightly from our data, if they occured in-between our weather recording intervals... More about our weather records

Advertising

Viernheim weather history for previous 24 hours

 ConditionsComfort  
Time TempWeatherWind HumidityBarometerVisibility
12:50 PM
Mon, Mar 2
48 °FScattered clouds.13 mph54%29.77 "HgN/A
12:20 PM48 °FPassing clouds.10 mph54%29.77 "HgN/A
11:50 AM46 °FScattered clouds.10 mph62%29.77 "HgN/A
11:20 AM46 °FPartly sunny.14 mph62%29.77 "HgN/A
10:50 AM48 °FPartly sunny.10 mph62%29.77 "HgN/A
10:20 AM46 °FScattered clouds.15 mph62%29.74 "HgN/A
9:50 AM45 °FScattered showers. Broken clouds.14 mph66%29.74 "HgN/A
9:20 AM45 °FScattered showers. Partly sunny.13 mph71%29.74 "HgN/A
8:50 AM46 °FPartly sunny.8 mph71%29.71 "HgN/A
8:20 AM46 °FSprinkles. Partly sunny.13 mph66%29.68 "HgN/A
7:50 AM46 °FBroken clouds.5 mph76%29.65 "HgN/A
7:20 AM46 °FMore clouds than sun.7 mph82%29.65 "HgN/A
6:50 AM46 °FPassing clouds.6 mph82%29.65 "HgN/A
6:20 AM46 °FPassing clouds.6 mph82%29.62 "HgN/A
5:50 AM48 °FMostly cloudy.9 mph71%29.65 "HgN/A
7:50 PM
Sun, Mar 1
48 °FMostly cloudy.8 mph94%29.74 "HgN/A
7:20 PM48 °FMostly cloudy.6 mph94%29.74 "HgN/A
6:50 PM48 °FPartly cloudy.7 mph94%29.74 "HgN/A
6:20 PM48 °FPassing clouds.9 mph87%29.74 "HgN/A
5:50 PM50 °FMostly cloudy.10 mph82%29.74 "HgN/A
5:20 PM50 °FOvercast.8 mph82%29.74 "HgN/A
4:50 PM50 °FOvercast.12 mph82%29.74 "HgN/A
4:20 PM50 °FPartly sunny.9 mph82%29.74 "HgN/A
3:50 PM50 °FBroken clouds.12 mph82%29.74 "HgN/A
3:20 PM50 °FMore clouds than sun.12 mph82%29.74 "HgN/A
2:50 PM50 °FCloudy.9 mph82%29.74 "HgN/A
2:20 PM48 °FPartly sunny.10 mph87%29.77 "HgN/A
Weather by CustomWeather, © 2015

See weather overviewHow to use our weather pages